Wind_Speed
12 13 12 12 14 14 11 9 7 7 8 7 6 5 5 6 6 6 6 5 4 4 3 4 4 4 4 3 4 4 5 6 6 7 7 7 7 7 7 7 6 6 7 7 7 7 7 7 7
13 12 13 12 14 13 11 9 8 8 8 8 7 7 7 7 7 7 7 7 6 4 4 3 3 3 3 4 4 4 5 5 6 7 8 8 8 8 7 7 7 6 6 6 6 7 7 7 7
13 13 13 13 12 11 10 9 9 9 9 8 8 8 8 8 8 8 8 8 7 5 4 3 4 3 3 4 4 5 5 5 5 6 7 7 7 7 8 7 7 7 6 6 6 6 6 7 6
12 13 12 12 10 10 10 10 10 9 9 8 8 8 8 9 9 9 9 9 7 6 5 4 4 4 3 4 4 5 5 5 4 5 6 7 6 7 6 6 7 7 7 7 6 6 6 7 7
11 13 11 9 9 9 9 9 9 10 10 9 9 9 9 9 9 9 9 8 8 7 6 6 5 4 4 4 4 4 4 4 4 5 5 6 6 6 6 6 6 6 7 7 6 6 6 7 8
12 12 11 9 8 8 8 9 9 9 9 9 9 9 10 11 10 10 9 9 9 8 7 6 6 5 4 2 3 4 4 4 4 4 4 5 5 5 6 6 6 6 6 6 6 6 6 6 7
11 12 10 7 8 7 8 8 8 9 9 10 9 9 9 10 10 10 10 9 9 8 8 7 6 5 4 2 0 2 2 3 3 4 4 3 4 5 5 6 5 6 6 6 6 7 6 7 7
9 10 8 6 6 7 8 8 8 9 9 9 9 9 9 10 11 10 10 10 9 9 8 8 7 6 5 3 1 1 1 2 2 3 2 2 2 3 4 5 5 4 5 6 6 6 7 7 7
9 8 5 4 5 6 7 8 8 9 9 9 9 9 9 10 11 10 10 10 9 9 9 8 7 6 5 3 2 1 1 2 2 2 1 1 1 2 3 3 3 3 4 4 5 6 6 7 7
7 6 4 5 6 7 8 8 9 8 8 9 9 9 9 10 11 10 9 10 10 9 9 8 7 6 5 3 2 1 1 0 1 1 1 1 0 1 2 2 3 3 3 3 4 5 5 6 6
3 2 2 4 5 5 7 9 9 9 9 8 9 9 9 10 11 11 11 11 11 11 10 8 7 6 5 4 3 1 1 1 1 1 0 0 0 1 2 2 2 3 4 5 5 5 5 4 5
1 1 2 3 5 5 8 8 8 8 10 10 9 8 9 9 10 11 11 12 12 12 11 9 7 6 6 5 4 3 2 1 0 1 1 1 1 1 2 3 3 4 5 6 6 5 4 5 5
1 2 2 4 4 6 7 8 8 8 9 10 9 9 9 10 10 10 11 11 11 11 11 10 8 7 6 5 4 4 3 2 2 1 1 1 2 3 4 5 5 5 6 7 6 5 5 6 6
2 1 2 4 5 6 7 8 7 8 9 10 9 10 10 10 10 11 11 11 11 10 11 9 8 7 6 5 5 4 4 3 3 3 2 3 3 4 5 5 6 6 7 6 6 6 6 6 7
2 2 3 5 5 6 7 8 9 8 9 10 10 10 10 10 11 11 11 11 11 10 10 9 8 7 6 6 5 4 3 3 4 4 4 4 4 4 5 6 7 8 7 6 7 7 8 8 8
3 4 4 5 5 6 7 8 10 9 8 9 10 10 10 10 11 11 11 11 11 11 10 9 9 8 7 6 6 4 4 4 4 5 4 5 5 5 6 6 7 7 8 8 8 8 9 9 8
4 4 6 7 5 6 7 10 11 10 9 9 9 10 10 10 11 11 11 11 11 10 10 9 9 8 8 7 7 6 5 5 5 5 5 5 5 5 6 7 8 8 9 9 9 9 9 9 8
4 5 7 7 6 7 8 10 11 10 11 11 10 10 10 10 10 11 11 11 10 9 10 9 8 8 8 8 7 6 6 6 6 7 6 6 6 6 7 8 9 10 10 10 10 9 9 9 9
6 7 8 9 8 9 10 11 11 11 11 12 12 11 10 10 10 11 11 11 10 9 9 8 8 8 8 8 8 7 7 7 7 8 8 8 8 8 9 9 10 11 11 11 11 10 10 10 10
9 10 10 10 11 10 12 12 11 11 13 12 13 12 11 10 10 10 11 10 10 9 9 9 9 9 9 9 9 9 8 8 8 9 9 9 9 9 9 10 11 12 12 12 12 11 11 12 12
11 12 11 10 9 10 12 14 12 11 12 14 14 13 12 11 11 10 10 10 9 9 9 9 9 9 9 9 10 10 10 9 9 10 10 10 10 10 11 12 12 13 13 13 13 13 13 14 14
13 13 11 10 10 11 12 15 13 11 12 14 14 14 13 12 11 10 10 10 9 10 9 9 9 9 10 10 10 11 11 10 10 10 11 11 11 11 12 13 13 13 14 14 14 15 15 15 15
14 12 11 12 13 13 11 13 13 13 12 14 16 15 14 13 12 11 10 10 10 10 10 9 9 9 10 11 11 11 11 11 11 11 12 12 12 13 13 13 14 14 15 15 15 16 16 16 16
13 12 11 12 14 14 11 13 15 14 15 15 16 15 14 13 13 12 11 11 11 11 11 10 10 11 11 11 11 11 11 12 12 13 13 13 13 14 14 14 14 14 15 16 16 17 18 18 18
14 12 11 12 13 13 11 13 16 15 15 16 17 14 14 13 13 13 12 12 11 12 12 11 12 12 12 12 11 11 12 12 13 13 14 14 14 14 14 14 15 15 16 17 17 18 18 19 19
15 14 15 15 14 13 14 15 16 14 13 15 16 15 16 15 13 13 13 13 12 12 13 13 13 13 13 12 12 12 12 13 14 14 14 15 15 14 14 15 16 16 17 18 18 19 19 19 20
16 15 16 16 15 15 13 13 15 15 16 17 16 17 16 15 14 14 14 13 13 13 13 13 14 14 13 13 12 13 13 14 14 14 15 15 15 14 15 16 18 18 19 19 19 19 20 20 21
17 15 15 16 15 14 14 14 16 15 17 18 17 17 16 14 15 15 14 14 14 14 14 14 13 14 14 13 13 13 14 14 14 15 15 15 15 16 17 17 19 19 20 20 20 20 20 20 21
16 16 16 16 16 14 16 16 17 18 18 17 17 17 16 15 16 15 15 14 14 14 14 14 13 14 14 14 14 14 15 14 14 14 15 16 17 18 19 19 20 21 21 21 21 21 21 22 22
18 18 17 17 18 18 17 19 20 18 14 15 16 17 17 16 16 15 15 15 15 14 14 14 14 14 14 14 14 15 15 15 15 15 16 17 19 20 20 21 21 22 23 23 23 23 23 23 23
Wind_Direction
82 78 74 69 58 57 48 34 25 26 25 23 23 24 17 13 10 2 352 347 338 324 311 304 298 288 276 270 256 240 239 235 230 227 222 219 220 222 225 230 232 234 232 237 238 240 240 244 251
80 78 72 64 53 49 37 28 26 25 24 25 24 27 22 23 18 7 2 355 350 341 323 312 299 293 278 267 262 250 240 235 231 227 223 218 218 221 226 229 232 236 238 238 244 245 242 247 256
81 75 67 57 45 37 30 27 31 30 25 25 24 23 23 22 19 12 8 6 6 2 351 339 322 304 285 273 256 247 237 235 229 224 220 218 220 223 227 231 235 242 245 247 250 254 253 252 253
84 78 68 56 41 35 30 28 26 28 27 25 21 22 22 16 13 12 10 12 15 12 2 352 333 319 299 276 253 239 234 232 226 218 216 216 218 223 228 232 237 241 245 248 255 259 254 255 257
84 74 60 50 39 33 29 27 26 26 24 24 21 21 20 20 14 12 13 16 17 14 7 1 352 336 314 287 253 228 220 226 225 221 218 216 219 221 227 228 235 241 245 249 256 262 256 250 255
83 76 52 33 35 33 27 21 14 25 21 19 18 16 16 18 14 16 18 17 17 13 12 6 2 357 344 313 234 218 216 224 228 230 224 220 219 224 232 231 239 243 246 253 257 261 263 257 259
80 69 56 24 12 16 18 12 12 16 17 15 10 9 10 17 16 13 15 15 13 14 15 14 14 14 6 14 144 204 209 223 229 237 231 228 231 235 238 240 245 245 252 257 260 264 265 263 264
81 72 58 18 1 2 11 7 7 8 8 10 9 11 13 19 17 16 15 14 13 13 15 14 17 24 26 41 86 147 190 201 215 230 221 214 224 235 239 242 248 254 262 265 268 272 270 270 268
82 76 64 21 4 5 10 5 2 4 4 6 9 11 14 18 18 19 19 13 11 12 12 13 16 22 25 34 69 104 179 188 193 185 177 195 209 235 245 248 248 261 269 278 279 279 280 279 274
77 72 55 27 17 11 6 5 0 7 5 5 7 11 14 17 18 18 16 14 12 9 9 6 8 14 17 24 46 76 144 180 179 175 146 145 180 281 276 270 272 279 278 290 292 289 290 288 279
80 65 27 17 10 360 6 7 1 4 3 6 8 11 16 19 18 16 15 15 12 12 11 12 14 17 21 32 48 61 120 126 159 213 174 131 313 290 292 294 296 294 294 294 290 297 298 291 284
314 12 354 347 1 4 8 2 351 0 1 6 8 15 18 21 18 17 15 15 16 19 20 26 28 27 30 36 43 55 79 95 92 264 290 326 319 308 304 300 300 298 299 300 293 292 290 288 281
257 332 309 311 341 355 4 355 352 1 4 6 9 16 15 16 14 10 11 13 15 17 19 24 26 24 29 34 40 43 41 34 17 349 311 322 320 306 311 318 316 307 307 307 308 301 289 285 283
224 269 301 319 334 346 357 358 354 3 3 2 5 9 12 13 12 9 8 11 8 9 11 16 23 27 27 27 34 31 25 12 8 357 345 329 324 324 328 324 325 320 318 318 313 309 305 296 290
243 259 268 294 309 336 346 347 345 358 357 356 357 360 0 2 4 5 6 8 8 6 8 10 16 24 24 23 26 20 9 2 355 351 348 342 331 323 323 321 323 324 331 331 322 314 313 306 296
256 261 261 286 308 324 327 329 330 346 348 349 351 354 354 354 356 358 0 3 5 6 9 10 12 15 16 18 19 11 5 360 350 345 342 335 328 327 325 322 325 327 331 329 324 319 313 310 304
250 281 278 285 303 314 314 313 322 341 341 340 345 348 349 350 351 352 354 354 359 3 5 7 10 11 10 7 6 4 3 352 340 335 336 332 327 330 329 327 327 327 330 327 323 320 313 310 309
251 280 281 289 300 292 290 299 312 328 335 334 334 341 341 342 345 347 350 352 356 357 357 1 8 8 6 3 3 0 355 346 339 333 329 324 326 328 325 325 323 325 327 328 325 322 318 313 309
242 261 268 278 280 281 283 288 305 318 326 328 328 328 332 334 336 342 345 347 351 353 355 356 358 1 359 356 357 353 349 344 340 336 332 324 324 326 325 321 319 325 328 326 324 320 316 309 303
246 254 259 271 278 281 285 279 293 308 313 317 318 323 323 324 325 334 341 341 343 346 350 350 350 349 350 348 345 345 341 338 336 336 333 326 323 324 323 321 320 323 323 322 320 317 311 307 301
247 253 255 258 269 272 277 279 278 295 307 308 309 314 317 311 317 325 329 332 334 339 339 341 342 339 337 338 338 340 338 333 333 333 332 328 324 325 323 321 322 322 322 320 316 315 312 308 303
250 250 251 258 264 266 267 279 283 284 301 304 310 310 311 311 311 318 321 323 325 329 332 332 333 332 331 332 332 333 335 332 330 330 329 327 322 322 325 323 322 320 320 319 318 316 314 312 307
246 243 244 248 256 259 264 269 278 286 294 299 304 304 303 305 308 313 314 314 314 319 322 321 325 325 325 327 330 330 330 329 329 330 330 327 325 324 325 324 323 321 320 319 318 315 314 311 309
247 244 246 255 261 264 258 266 271 277 287 290 297 301 299 300 307 308 310 309 308 310 310 310 314 318 319 321 324 324 324 326 327 328 327 326 326 324 323 325 324 321 320 318 315 313 313 311 310
240 240 250 258 262 263 262 259 267 281 285 290 300 301 296 298 301 304 309 307 304 304 304 306 307 310 313 314 317 318 321 322 324 323 322 322 322 324 326 327 326 323 322 319 316 313 312 311 310
242 235 245 253 267 267 261 260 267 279 277 287 297 298 293 293 296 301 306 306 302 300 300 300 303 304 306 309 312 314 317 319 321 322 320 320 321 324 327 326 326 324 322 321 319 317 313 311 311
243 239 244 252 258 265 271 273 271 276 282 290 292 293 293 292 293 296 300 301 303 303 299 297 299 300 302 305 308 309 311 316 319 320 322 322 322 322 323 324 324 324 323 322 319 318 316 313 312
249 245 246 245 255 256 266 267 266 271 280 283 284 288 290 288 292 294 295 297 298 301 302 299 296 297 298 299 301 303 308 313 316 317 318 323 323 322 321 321 323 323 322 322 320 316 316 315 313
246 248 243 246 251 255 266 268 266 271 276 276 284 291 290 292 292 291 292 294 297 296 295 298 294 293 293 296 299 302 306 309 314 316 318 320 321 322 320 319 320 321 322 321 319 315 314 313 312
241 243 242 244 250 253 260 270 265 272 276 280 281 288 291 293 289 288 288 289 293 294 291 290 295 294 291 291 297 303 306 307 310 315 316 317 317 319 318 318 317 318 318 317 318 316 312 310 309
Height
5889 5889 5889 5889 5888 5887 5887 5888 5886 5884 5884 5882 5881 5879 5878 5877 5877 5877 5874 5871 5871 5870 5869 5868 5868 5868 5868 5868 5868 5868 5869 5869 5869 5869 5870 5871 5872 5873 5874 5875 5876 5876 5877 5878 5879 5879 5880 5880 5881
5891 5891 5890 5889 5889 5889 5890 5889 5887 5886 5885 5883 5882 5881 5879 5878 5877 5875 5873 5871 5870 5869 5868 5868 5867 5867 5867 5867 5867 5867 5868 5868 5867 5868 5868 5870 5871 5873 5874 5875 5875 5876 5877 5877 5878 5878 5879 5880 5880
5893 5892 5891 5891 5892 5892 5892 5890 5889 5887 5886 5885 5883 5882 5880 5879 5877 5875 5873 5872 5870 5869 5868 5868 5867 5866 5866 5866 5866 5866 5867 5867 5866 5866 5868 5869 5871 5872 5873 5874 5875 5875 5876 5877 5877 5878 5878 5879 5879
5895 5893 5894 5896 5895 5894 5893 5892 5890 5889 5888 5886 5885 5883 5881 5880 5878 5876 5874 5872 5871 5870 5868 5867 5866 5865 5864 5864 5864 5865 5866 5866 5866 5867 5868 5869 5871 5871 5873 5873 5874 5875 5875 5876 5877 5877 5877 5878 5878
5895 5894 5897 5897 5897 5896 5895 5894 5892 5891 5889 5887 5886 5884 5882 5881 5879 5877 5875 5873 5872 5870 5869 5867 5866 5864 5863 5862 5862 5864 5865 5866 5867 5868 5868 5869 5870 5871 5872 5873 5873 5874 5875 5875 5875 5876 5876 5877 5877
5896 5897 5899 5899 5898 5898 5896 5896 5894 5892 5890 5888 5887 5885 5883 5882 5879 5877 5876 5874 5873 5871 5869 5867 5866 5864 5862 5859 5860 5863 5865 5866 5867 5868 5869 5869 5870 5871 5872 5872 5873 5873 5874 5874 5874 5875 5875 5875 5876
5898 5899 5901 5901 5899 5899 5898 5896 5894 5893 5891 5890 5888 5886 5883 5882 5880 5878 5877 5875 5873 5872 5870 5868 5866 5865 5863 5861 5862 5863 5865 5866 5867 5868 5869 5869 5870 5871 5871 5872 5872 5873 5873 5873 5873 5873 5874 5874 5874
5900 5902 5903 5903 5902 5900 5899 5897 5895 5894 5892 5891 5889 5887 5885 5883 5881 5879 5878 5876 5874 5872 5871 5869 5867 5866 5864 5864 5864 5865 5866 5867 5868 5868 5869 5870 5870 5871 5871 5871 5872 5872 5872 5872 5872 5872 5873 5873 5873
5903 5904 5904 5904 5902 5901 5900 5898 5896 5895 5893 5891 5890 5888 5886 5884 5882 5881 5879 5877 5875 5873 5871 5869 5868 5867 5866 5865 5865 5866 5867 5867 5868 5869 5869 5870 5870 5871 5871 5871 5871 5871 5872 5872 5872 5871 5871 5871 5871
5904 5905 5905 5904 5903 5902 5900 5899 5898 5896 5894 5892 5891 5889 5887 5885 5883 5882 5880 5878 5876 5874 5872 5870 5868 5867 5866 5865 5866 5867 5867 5868 5869 5869 5870 5870 5870 5871 5871 5871 5871 5871 5871 5871 5871 5870 5870 5870 5870
5906 5906 5906 5905 5904 5903 5902 5900 5899 5897 5895 5893 5891 5890 5888 5886 5885 5883 5881 5879 5877 5875 5872 5870 5869 5868 5867 5867 5867 5867 5868 5869 5870 5870 5870 5870 5871 5871 5871 5871 5871 5871 5870 5870 5870 5870 5869 5869 5869
5907 5906 5906 5906 5904 5904 5902 5900 5899 5898 5896 5894 5892 5891 5889 5888 5886 5884 5883 5881 5878 5876 5873 5871 5870 5869 5869 5868 5868 5868 5869 5870 5870 5871 5871 5871 5871 5871 5871 5871 5870 5870 5870 5869 5869 5869 5868 5868 5868
5906 5906 5906 5906 5905 5904 5903 5901 5900 5899 5897 5895 5893 5892 5890 5889 5887 5885 5884 5882 5880 5878 5876 5873 5872 5871 5871 5870 5870 5870 5870 5871 5871 5871 5871 5871 5871 5871 5871 5870 5870 5869 5869 5868 5868 5867 5867 5867 5867
5906 5906 5906 5905 5904 5904 5904 5902 5900 5899 5898 5896 5894 5893 5891 5890 5888 5886 5884 5883 5881 5879 5877 5875 5874 5873 5872 5872 5871 5872 5872 5872 5872 5871 5871 5871 5871 5870 5870 5869 5869 5868 5868 5867 5867 5866 5866 5865 5865
5904 5905 5906 5905 5904 5905 5905 5903 5901 5900 5898 5897 5895 5894 5892 5891 5889 5887 5885 5884 5882 5880 5879 5877 5876 5875 5874 5873 5873 5873 5873 5873 5872 5872 5871 5871 5871 5870 5870 5869 5868 5868 5867 5866 5865 5865 5864 5864 5863
5904 5905 5906 5906 5905 5905 5906 5904 5901 5900 5899 5897 5896 5894 5893 5891 5890 5888 5886 5884 5883 5881 5880 5878 5877 5876 5875 5875 5874 5874 5873 5873 5873 5872 5871 5871 5870 5870 5869 5869 5868 5867 5866 5865 5864 5863 5862 5862 5861
5904 5906 5906 5905 5905 5905 5905 5904 5902 5900 5899 5898 5896 5895 5893 5892 5890 5888 5887 5885 5884 5882 5881 5879 5878 5877 5877 5876 5875 5875 5874 5874 5873 5872 5871 5871 5870 5869 5869 5868 5867 5866 5865 5864 5862 5861 5860 5860 5859
5905 5906 5906 5905 5905 5905 5905 5903 5902 5900 5899 5897 5896 5895 5894 5892 5891 5889 5887 5885 5884 5883 5882 5880 5879 5878 5878 5877 5876 5875 5875 5874 5873 5872 5871 5870 5870 5869 5868 5867 5866 5865 5864 5862 5861 5860 5859 5858 5857
5903 5906 5906 5906 5905 5905 5904 5902 5900 5899 5898 5897 5895 5894 5893 5892 5890 5889 5887 5886 5885 5883 5882 5881 5880 5879 5879 5878 5877 5876 5875 5874 5873 5872 5871 5870 5869 5868 5867 5866 5865 5864 5862 5861 5859 5858 5857 5856 5855
5902 5904 5904 5904 5904 5904 5902 5900 5899 5898 5897 5896 5895 5894 5892 5891 5889 5888 5887 5886 5885 5884 5882 5881 5881 5880 5879 5878 5877 5876 5875 5874 5872 5871 5870 5869 5868 5867 5866 5865 5864 5862 5861 5859 5858 5857 5855 5854 5852
5900 5902 5902 5902 5903 5902 5901 5900 5898 5897 5896 5895 5894 5893 5891 5890 5889 5888 5886 5885 5884 5883 5882 5881 5880 5879 5879 5878 5877 5876 5874 5873 5872 5871 5869 5868 5867 5866 5864 5863 5862 5860 5859 5857 5856 5854 5853 5852 5850
5898 5899 5899 5900 5900 5900 5900 5898 5895 5893 5893 5893 5892 5891 5890 5889 5888 5886 5885 5885 5884 5883 5882 5881 5880 5879 5878 5877 5876 5875 5874 5872 5871 5870 5868 5867 5865 5864 5863 5861 5860 5858 5857 5855 5853 5852 5850 5849 5847
5894 5895 5896 5897 5897 5897 5897 5896 5894 5892 5891 5891 5890 5889 5888 5887 5886 5885 5884 5883 5882 5881 5881 5880 5879 5878 5877 5876 5875 5874 5872 5871 5870 5868 5867 5865 5864 5863 5861 5859 5858 5856 5854 5852 5850 5849 5847 5845 5844
5891 5893 5893 5894 5894 5893 5894 5894 5892 5889 5889 5888 5887 5887 5886 5885 5884 5883 5883 5882 5881 5880 5879 5878 5878 5877 5876 5875 5874 5873 5871 5870 5869 5867 5866 5864 5862 5861 5859 5857 5855 5854 5852 5850 5848 5846 5844 5842 5840
5889 5891 5891 5891 5891 5891 5891 5891 5889 5886 5887 5886 5885 5884 5883 5883 5882 5881 5881 5880 5879 5878 5877 5877 5876 5875 5874 5873 5872 5871 5870 5868 5867 5865 5864 5862 5861 5859 5857 5855 5853 5851 5849 5847 5844 5842 5840 5838 5836
5885 5888 5889 5889 5889 5888 5889 5888 5888 5884 5884 5884 5884 5882 5881 5880 5880 5879 5878 5877 5877 5876 5875 5874 5874 5873 5872 5871 5870 5869 5868 5866 5865 5863 5862 5860 5858 5856 5855 5852 5850 5848 5846 5843 5841 5839 5837 5835 5832
5882 5883 5885 5886 5885 5886 5885 5885 5884 5881 5882 5882 5881 5879 5879 5878 5877 5877 5876 5875 5874 5873 5873 5872 5871 5870 5869 5868 5868 5866 5865 5864 5863 5861 5859 5858 5856 5854 5852 5850 5848 5845 5843 5840 5838 5835 5833 5831 5828
5879 5880 5882 5882 5881 5882 5884 5882 5880 5879 5879 5879 5878 5876 5874 5873 5874 5873 5873 5872 5872 5871 5870 5869 5868 5868 5867 5866 5864 5864 5863 5861 5860 5859 5857 5855 5854 5852 5850 5848 5845 5842 5839 5837 5834 5831 5829 5826 5824
5874 5876 5877 5878 5879 5880 5880 5881 5877 5877 5875 5874 5873 5872 5872 5871 5871 5870 5870 5869 5869 5868 5867 5866 5865 5864 5864 5863 5862 5861 5860 5859 5857 5856 5854 5853 5851 5849 5847 5844 5842 5839 5836 5833 5830 5827 5825 5822 5819
5870 5871 5873 5874 5875 5875 5876 5878 5873 5873 5871 5871 5871 5870 5869 5869 5869 5867 5867 5866 5866 5865 5864 5863 5862 5861 5861 5860 5859 5858 5857 5856 5855 5853 5851 5850 5848 5846 5843 5841 5838 5835 5832 5829 5826 5823 5820 5817 5814